パンスターズ彗星

C/2022 A2 ( PanSTARRS )

English version
Home page
Updated on July 16, 2022

---------------------------------------------------------------------

・ プロフィール

発見日 2022年1月10日
発見光度 20.5等
発見者 Pan-STARRS 2 telescope (Haleakala)

・ 写真集

・ 軌道要素

Epoch 2022 Aug. 9.0 TT = JDT 2459800.5
T 2023 Feb. 18.25328 TT                                 Rudenko
q   1.7353499            (2000.0)            P               Q
z  -0.0002981      Peri.   88.36088     +0.01729441     +0.99012134
 +/-0.0000020      Node   171.58009     -0.09141074     -0.13701479
e   1.0005173      Incl.  108.14840     +0.99566309     -0.02977733
From 457 observations 2022 Jan. 9-June 22, mean residual 0".4.

・ 星図

・ 光度変化

        m1 = 9.0 + 5 logΔ + 10.0 log r

---------------------------------------------------------------------

軌道要素はM.P.E.C. 2022-M88に掲載されたものです。
星図はステラナビゲータ Ver.10 (アストロアーツ) で作成したものです。
光度グラフはComet for Windowsで作成したものです。

---------------------------------------------------------------------

Copyright(C) Seiichi Yoshida (comet@aerith.net). All rights reserved.